Flag for U.S.A. Weather past 2 weeks in Rapid City, South Dakota, U.S.A.

Now
66 °F

Clear.


Feels Like: 66 °F
Forecast: 58 / 79 °F
Wind: 3 mph from Southwest

Location: Ellsworth Air Force Base

Current Time: Aug 28, 2014 at 10:17:15 PM

Latest Report: Aug 28, 2014 at 9:58 PM


Visibility: 9 mi

Pressure: 29.87 "Hg

Humidity: 82%

Dew point: 60 °F

Location of Rapid CityLocation

Historic Weather in Rapid City — Graph

°F

Rapid City temperature yesterday

Maximum temperature yesterday: 73 °F (at 2:03 PM)
Minimum temperature yesterday: 56 °F (at 6:58 AM)
Average temperature yesterday: 65 °F

Past Weeks' High & Low Weather Summary

 TemperatureHumidityPressure
High92 °F (Aug 14, 1:58 PM)100% (Aug 22, 5:58 AM)30.18 "Hg (Aug 22, 5:58 AM)
Low49 °F (Aug 25, 4:58 AM)31% (Aug 16, 3:58 PM)29.62 "Hg (Aug 20, 2:58 AM)
Average70 °F67%29.91 "Hg
* Reported Aug 13 8:58 PM — Aug 28 8:58 PM, Rapid City, Weather by CustomWeather, © 2014

Note: Actual official high and low records may vary slightly from our data, if they occured in-between our weather recording intervals... More about our weather records

Advertising

Rapid City weather history for previous 24 hours

 ConditionsComfort  
Time TempWeatherWind HumidityBarometerVisibility
8:58 PM
Aug 28
67 °FClear.2 mph78%29.88 "Hg10 mi
7:58 PM69 °FSunny.6 mph75%29.88 "Hg10 mi
6:58 PM75 °FSunny.3 mph54%29.86 "Hg10 mi
5:58 PM74 °FSunny.3 mph58%29.87 "Hg10 mi
4:58 PM76 °FSunny.6 mph48%29.87 "Hg10 mi
3:58 PM76 °FSunny.3 mph48%29.90 "Hg10 mi
2:58 PM75 °FPartly sunny.2 mph55%29.90 "Hg10 mi
1:58 PM76 °FOvercast.3 mph46%29.91 "Hg10 mi
12:58 PM75 °FBroken clouds.5 mph54%29.93 "Hg10 mi
11:58 AM72 °FScattered clouds.6 mph63%29.95 "Hg10 mi
10:58 AM70 °FScattered clouds.5 mph71%29.96 "Hg10 mi
9:58 AM67 °FOvercast.1 mph75%29.97 "Hg10 mi
8:58 AM65 °FSunny.2 mph83%29.97 "Hg10 mi
7:58 AM64 °FOvercast.5 mph89%29.96 "Hg10 mi
6:58 AM62 °FOvercast.3 mph93%29.95 "Hg10 mi
5:58 AM61 °FMostly cloudy.2 mph95%29.96 "Hg10 mi
4:58 AM61 °FMostly cloudy.5 mph97%29.96 "Hg10 mi
3:58 AM62 °FOvercast.5 mph98%29.96 "Hg10 mi
2:58 AM62 °FOvercast.3 mph96%29.96 "Hg10 mi
1:58 AM63 °FOvercast.3 mph92%29.96 "Hg10 mi
12:58 AM63 °FMostly cloudy.3 mph93%29.97 "Hg10 mi
11:58 PM
Aug 27
64 °FPassing clouds.5 mph92%29.99 "Hg10 mi
10:58 PM64 °FPassing clouds.8 mph99%30.00 "Hg10 mi
Weather by CustomWeather, © 2014

See weather overviewHow to use our weather pages